Location: Newark
(49.8969°N, 3.3422°E)
Time: 19:48:33
(UTC+00:00)

Vanguard 1 Rocket - Pass Details

Date: 27 January 2020
Orbit: 650 x 4226 km, 34.3° (Epoch: 17 February)

Event Time Altitude Azimuth Distance (km) Brightness Sun altitude
Rises 14:41:50 0° 269° (W) 5,662 12.1 12.8°
Reaches altitude 10° 14:45:47 10° 258° (WSW) 5,129 12.2 12.4°
Maximum altitude 14:58:18 28° 208° (SSW) 4,992 12.7 11.0°
Drops below altitude 10° 15:16:11 10° 160° (SSE) 7,323 12.4 9.0°
Sets 15:23:42 0° 151° (SSE) 8,462 12.5 8.1°
